Location: Goettingen
(51.5300°N, 9.9433°E)
Time: 14:40:25
(UTC+01:00)

ISS - Pass Details

Date: 22 January 2021
Orbit: 418 x 421 km, 51.6° (Epoch: 24 January)

Event Time Altitude Azimuth Distance (km) Brightness Sun altitude
Rises 20:17:56 0° 262° (W) 2,370 1.1 -31.5°
Reaches altitude 10° 20:20:02 10° 262° (W) 1,507 -0.2 -31.8°
Enters shadow 20:20:08 11° 262° (W) 1,462 -0.2 -31.9°
